Location: Boncourt
(49.6160°N, 3.9448°E)
Time: 12:33:07
(UTC+00:00)

Daily predictions for brighter satellites

Satellite Brightness Start Highest point End
(mag) Time Altitude Azimuth Time Altitude Azimuth Time Altitude Azimuth
COSMO-SKYMED 1 3.2 17:21:28 10° NNE 17:25:29 35° E 17:29:28 10° SSE
SL-4 R/B 1.7 17:24:22 10° WNW 17:27:50 78° SSW 17:31:29 10° ESE
Cosmos 1726 Rocket 3.5 17:23:30 10° N 17:27:51 82° E 17:32:11 10° SSE
Cosmos 1408 4.0 17:26:28 10° SW 17:29:41 38° WNW 17:32:59 10° N
USA 281 3.6 17:23:42 10° NNE 17:30:15 69° WNW 17:36:47 10° SW
Cosmos 1825 2.0 17:28:16 10° S 17:31:57 80° E 17:35:40 10° NNE
USA 215 3.3 17:26:40 10° ESE 17:33:14 83° NNE 17:39:50 10° WNW
Cosmos 540 Rocket 4.3 17:33:47 10° NNW 17:38:49 56° WSW 17:43:49 10° S
Cosmos 2322 4.2 17:35:51 10° S 17:41:06 39° ESE 17:46:22 10° NE
Cosmos 1892 3.8 17:39:36 10° SSW 17:43:14 46° WNW 17:46:54 10° N
Radarsat Rocket 4.4 17:37:41 10° SSE 17:44:00 83° WSW 17:51:11 10° NNW
Cosmos 1626 Rocket 4.4 17:42:05 10° SSE 17:45:46 28° E 17:49:29 10° NNE
Cosmos 1340 2.5 17:43:10 10° N 17:46:52 82° ENE 17:50:32 10° SSE
Cosmos 1844 Rocket 4.2 17:42:20 10° NW 17:47:32 41° WSW 17:52:42 10° S
Lacrosse 4 Rocket 3.4 17:51:35 10° N 17:53:55 14° NNE 17:55:31 12° NE
Cosmos 1461 4.2 17:50:27 10° WSW 17:54:34 40° NW 17:58:53 10° NNE
CZ-4 R/B 2.3 17:51:38 10° ESE 17:55:02 27° ENE 17:58:25 10° N
HJ-1C 4.4 17:56:14 17° ENE 17:56:14 17° ENE 17:57:44 10° NNE
CZ-4 R/B 4.4 17:52:37 10° SSE 17:56:44 88° ENE 18:00:54 10° NNW
SL-08 R/B 3.9 17:53:41 10° N 17:58:36 63° WNW 18:03:27 10° SSW
PAYLOAD B 4.2 17:54:48 10° SSE 18:00:14 64° ENE 18:05:41 10° N
Cosmos 841 Rocket 4.1 17:55:46 10° NNW 18:00:58 61° WSW 18:06:07 10° S
Cosmos 1814 Rocket 4.0 17:55:56 10° NNW 18:01:19 71° ENE 18:06:38 10° SSE
Cosmos 1869 3.9 18:01:28 10° NNW 18:05:20 59° W 18:09:15 10° S
SOZ 4.4 18:03:07 10° WNW 18:05:53 51° N 18:06:40 29° ENE
DMSP B5D2-2 4.5 18:03:26 10° N 18:08:42 67° WNW 18:13:53 10° SSW
Cosmos 2058 4.0 18:06:30 10° SE 18:09:47 23° E 18:12:09 15° NE
PSLV R/B 3.6 18:06:32 10° SSE 18:10:10 62° ENE 18:13:56 10° N
ATLAS 5 CENTAUR R/B 3.5 18:08:18 10° NNW 18:11:35 19° NNE 18:13:56 14° NE
Cosmos 1386 Rocket 4.4 18:06:11 10° N 18:12:15 84° E 18:18:21 10° S
Cosmos 2315 Rocket 4.4 18:07:33 10° SSE 18:13:25 41° E 18:19:20 10° NNE
Cosmos 1850 Rocket 4.1 18:08:30 10° SSW 18:13:41 80° WNW 18:18:54 10° NNE
SKYMED 2 3.7 18:09:26 10° NNE 18:13:48 79° WNW 18:18:09 10° SSW
Okean O Rocket 2.0 18:10:48 10° SE 18:14:55 40° ENE 18:19:05 10° N
YAOGAN 1 2.5 18:10:59 10° SSE 18:15:16 66° ENE 18:19:34 10° N
Cosmos 2219 Rocket 2.1 18:10:29 10° SSW 18:16:04 83° ESE 18:21:43 10° NNE
CZ-4B R/B 3.2 18:11:17 10° SSE 18:16:36 62° ENE 18:22:03 10° N
BlueWalker 3 2.0 18:13:09 10° WNW 18:17:02 79° SSW 18:19:40 20° ESE
Cosmos 1356 3.0 18:16:46 10° N 18:19:50 64° ENE 18:22:52 10° SSE
Cosmos 2360 Rocket 3.1 18:14:46 10° SW 18:20:14 50° NW 18:25:46 10° NNE
Feng Yun 1-1 Rocket 4.4 18:15:26 10° SE 18:20:38 47° ENE 18:25:48 10° N
Cosmos 1606 2.6 18:17:11 10° N 18:21:02 85° E 18:24:51 10° S
Cosmos 2058 Rocket 4.0 18:17:22 10° NNW 18:21:40 51° W 18:25:58 10° S
Cosmos-2242 3.2 18:18:26 10° N 18:22:33 47° ENE 18:26:39 10° SSE
Cosmos 1745 Rocket 4.0 18:16:37 10° N 18:22:53 88° W 18:29:03 10° S
Lacrosse 5 2.7 18:18:51 10° W 18:23:43 42° NNW 18:27:06 18° NE
Okean 1-7 Rocket 3.5 18:20:16 10° S 18:24:40 65° E 18:29:08 10° NNE
Cosmos 1741 Rocket 4.4 18:20:07 10° SSW 18:25:25 69° WNW 18:30:46 10° NNE
Okean-O 3.9 18:28:31 22° NE 18:28:31 22° NE 18:31:24 10° N
SOICAL CYLINDER 4.2 18:28:11 10° SSW 18:30:59 65° ESE 18:31:19 57° ENE
BREEZE-M DEB (TANK) 3.7 18:17:28 10° SW 18:31:10 59° SSE 18:33:28 28° E
Cosmos 2237 Rocket 2.9 18:27:40 10° SSE 18:32:32 30° ESE 18:33:55 27° E
NOSS 8 (A) 4.2 18:29:07 10° SW 18:32:48 76° SE 18:33:43 43° NE
MINOTAUR 4 R/B 3.9 18:31:48 20° NNE 18:33:57 56° E 18:37:20 10° S
Cosmos 968 Rocket 3.4 18:30:19 10° S 18:35:29 67° ESE 18:40:43 10° NNE
Cosmos 2278 Rocket 2.1 18:30:06 10° NNW 18:35:47 70° ENE 18:41:02 12° SE
SJ-6B 3.3 18:36:32 36° ENE 18:36:48 37° ENE 18:40:32 10° N
Cosmos 2322 Rocket 3.9 18:32:14 10° WSW 18:37:09 30° NW 18:42:05 10° NNE
Cosmos 1709 Rocket 3.9 18:34:22 10° N 18:40:33 83° E 18:46:40 10° S
ATLAS CENTAUR R/B 3.9 18:41:45 10° NNW 18:43:22 12° N 18:44:58 10° NNE
Cosmos 1980 4.1 18:38:35 10° S 18:43:44 38° ESE 18:45:16 32° ENE
Resurs 1-3 4.2 18:44:18 34° ENE 18:44:18 34° ENE 18:47:57 10° N
Cosmos 2208 Rocket 3.9 18:39:32 10° NNW 18:44:46 79° ENE 18:49:56 10° SSE
CSL-04 Debris 4.3 18:42:07 20° SE 18:45:35 48° ENE 18:50:45 10° N
CSL-04 Rocket 3.9 18:43:56 27° ESE 18:46:22 44° ENE 18:51:31 10° N
Cosmos 2369 Rocket 3.7 18:42:50 10° N 18:46:36 18° NE 18:46:47 18° NE
Iridium 2 3.7 18:43:13 10° N 18:46:50 75° W 18:50:28 10° S
USA 81 4.0 18:41:52 10° S 18:47:09 90° ENE 18:52:28 10° N
Cosmos 1943 Rocket 2.7 18:42:11 10° NNW 18:47:29 38° NE 18:48:38 34° ENE
Cosmos 2333 Rocket 3.2 18:44:21 10° SW 18:49:47 45° NW 18:55:17 10° NNE
Cosmos 1570 Rocket 4.2 18:45:29 10° NNW 18:50:51 76° WSW 18:56:09 10° SSE
IGS 5A 3.3 18:52:10 27° SSE 18:54:19 71° ENE 18:58:26 10° N
Cosmos 1602 Rocket 3.4 18:50:15 10° S 18:54:33 87° ESE 18:58:54 10° N
Cosmos 1356 Rocket 3.1 18:50:52 10° S 18:54:49 75° E 18:56:49 28° NNE
Cosmos 44 Rocket 4.3 18:51:18 10° WSW 18:55:47 42° NW 18:59:07 17° NNE
SL-16 R/B 4.4 18:52:38 10° W 18:56:42 20° NW 19:00:47 10° N
Spot 1 3.7 18:59:32 43° NNE 19:00:45 72° ESE 19:04:50 10° S
Cosmos 2074 Rocket 4.2 18:54:57 10° N 19:01:03 48° ENE 19:03:04 36° ESE
COSMOS 2428 2.9 18:58:24 10° SW 19:04:03 73° WNW 19:09:08 13° NNE
Cosmos 2184 Rocket 4.1 18:58:43 10° N 19:04:47 49° ENE 19:06:16 41° ESE
SL-4 R/B 3.9 19:04:00 10° W 19:06:45 21° SW 19:08:15 17° S
Gblst 52 Del rocket 4.0 19:02:58 10° WNW 19:08:33 78° NNE 19:09:53 53° E
Cosmos 1812 Rocket 4.2 19:05:01 10° NNW 19:09:24 57° W 19:13:44 10° S
Cosmos 1758 Rocket 3.6 19:05:16 10° SSW 19:09:36 77° W 19:14:02 10° N
NOSS 0 Rocket 3.8 19:03:30 10° SSW 19:09:42 74° ESE 19:13:26 26° NE
Landsat 7 3.6 19:15:20 69° ESE 19:15:41 74° ENE 19:20:25 10° N
USA 215 4.4 19:10:36 10° SSE 19:16:38 39° SW 19:22:43 10° WNW
Cosmos 2154 Rocket 4.2 19:11:23 10° N 19:17:22 47° ENE 19:17:22 47° ENE
Meteor 2-2 Rocket 4.4 19:20:36 10° NNW 19:26:17 72° W 19:32:00 10° S
CZ-4 R/B 3.1 19:26:09 10° SSW 19:29:50 33° W 19:33:29 10° NNW
Lacrosse 4 Rocket 2.7 19:29:10 10° NNW 19:31:44 33° NNW 19:31:44 33° NNW
Resurs 01 Rocket 3.7 19:40:04 18° N 19:40:04 18° N 19:41:17 10° N
Cosmos 2221 4.4 19:34:27 10° N 19:36:00 22° N 19:36:00 22° N
Cosmos 2285 Rocket 3.8 19:34:37 10° NNW 19:40:58 72° ENE 19:41:01 72° ENE
Cosmos 2058 4.3 19:42:31 10° SW 19:46:24 37° WNW 19:48:31 22° NNW
Okean O Rocket 3.7 19:47:42 10° SSW 19:51:23 26° W 19:55:06 10° NW
BlueWalker 3 4.4 19:52:24 10° W 19:54:29 18° WSW 19:54:29 18° WSW
ATLAS 5 CENTAUR R/B 3.2 19:52:17 10° NW 19:55:18 34° N 19:55:18 34° N
Cosmos 2219 Rocket 4.2 19:56:16 10° W 20:00:43 24° NW 20:04:53 11° N
Cosmos 2297 4.5 19:57:47 10° NNW 20:01:47 44° N 20:01:47 44° N
Okean-O 4.3 20:06:03 29° NW 20:06:03 29° NW 20:08:28 10° NNW
Lacrosse 5 3.3 20:02:50 10° WNW 20:06:18 32° NNW 20:06:18 32° NNW
Cosmos 2237 Rocket 2.9 20:10:44 10° SW 20:15:50 52° WNW 20:15:50 52° WNW
Cosmos 2278 Rocket 4.3 20:15:04 10° NW 20:19:20 22° WSW 20:22:59 12° SW
Cosmos 909 Rocket 4.3 20:12:43 10° NW 20:19:29 66° WSW 20:19:29 66° WSW
Cosmos 1943 Rocket 3.3 20:25:57 10° NW 20:30:12 40° WNW 20:30:12 40° WNW
Cosmos 2369 Rocket 3.8 20:26:07 10° NNW 20:28:35 27° NNW 20:28:35 27° NNW
BREEZE-M DEB (TANK) 4.5 20:26:18 10° WSW 20:39:13 59° SSW 20:39:13 59° SSW
